User: anonymous   Login
Location: Unspecified
(0.0000°N, 0.0000°E)
Time: 10:38:27
(UTC+00:00)
Language:

SMOG-1 - Orbit

View from above orbital plane
View from above orbital plane
View from above satellite
View from above satellite

Ground track
Ground track

The orbit data is extracted from the following two-line orbital elements,

1 47964U 21022AJ  21342.69037504  .00001536  00000-0  10421-3 0  9999
2 47964  97.5439 241.7632 0021115  70.8273 289.5238 15.07716537 38124
Epoch (UTC): 08 December 2021 16:34:08
Eccentricity: 0.0021115
inclination: 97.5439°
perigee height: 528 km
apogee height: 558 km
right ascension of ascending node: 241.7632°
argument of perigee: 70.8273°
revolutions per day: 15.07716537
mean anomaly at epoch: 289.5238°
orbit number at epoch: 3812

The dashed part of the orbit path shows where the satellite is in the earth's shadow,  

DLR